EW8088 Weather Reports


time (UTC)temp
F
wind
direction
speed
knots
gust
knots
rain 1hr
in
rain 24hr
in
rain mn
in
humidity
%
barometer
mb
20260505200017 54 0 0.9 6.1 0.00 0.00 0.00 94 1013.1
20260505195017 54 0.0 4.3 0.00 0.00 0.00 95 1013.0
20260505194037 55 338 0.9 6.1 0.00 0.00 0.00 95 1012.8
20260505193017 55 0.0 2.6 0.00 0.00 0.00 95 1012.8
20260505192017 55 0.0 2.6 0.00 0.00 0.00 95 1012.7
20260505190017 56 0.0 1.7 0.00 0.00 0.00 96 1012.5
20260505185017 56 0.0 0.0 0.00 0.00 0.00 96 1012.5
20260505184017 57 0.0 3.5 0.00 0.00 0.00 96 1012.3
20260505183017 57 0 0.9 4.3 0.00 0.00 0.00 96 1012.3
20260505182017 57 338 0.9 3.5 0.00 0.00 0.00 96 1012.3
20260505181017 58 0 0.9 5.2 0.00 0.00 0.00 95 1012.2
20260505180016 58 338 1.7 3.5 0.00 0.00 0.00 95 1012.2
20260505175017 58 0 1.7 5.2 0.00 0.00 0.00 95 1012.2
20260505174017 58 0 0.9 4.3 0.00 0.00 0.00 95 1012.2
20260505173017 58 0 1.7 5.2 0.00 0.00 0.00 95 1012.2
20260505172016 58 0 0.9 3.5 0.00 0.00 0.00 95 1012.3
20260505171017 58 338 0.9 4.3 0.00 0.00 0.00 94 1012.3
20260505170036 58 0 0.9 3.5 0.00 0.00 0.00 95 1012.4
20260505165017 58 338 0.9 5.2 0.00 0.00 0.00 95 1012.3
20260505164016 58 338 0.9 3.5 0.00 0.00 0.00 95 1012.4
20260505163017 58 338 1.7 5.2 0.00 0.00 0.00 94 1012.3
20260505162016 58 338 0.9 4.3 0.00 0.00 0.00 94 1012.3
20260505161017 58 338 0.9 3.5 0.00 0.00 0.00 94 1012.3
20260505153016 58 0.0 1.7 0.00 0.00 0.00 94 1012.4
20260505152017 58 0.0 1.7 0.00 0.00 0.00 94 1012.4
20260505151116 58 0 0.9 4.3 0.00 0.00 0.00 94 1012.4
20260505125016 59 0.0 1.7 0.00 0.00 0.00 94 1013.0
20260505124016 59 338 0.9 3.5 0.00 0.00 0.00 94 1012.9
20260505123036 60 0 0.9 3.5 0.00 0.00 0.00 94 1013.0
20260505122016 60 0.0 2.6 0.00 0.00 0.00 94 1013.0
20260505121016 60 0.0 4.3 0.00 0.00 0.00 94 1013.0
20260505120036 59 0.0 3.5 0.00 0.00 0.00 94 1013.1
20260505115016 59 0 0.9 4.3 0.00 0.00 0.00 94 1013.0
20260505114016 58 0 0.9 3.5 0.00 0.00 0.00 94 1013.1
20260505113016 57 0 0.9 3.5 0.00 0.00 0.00 94 1013.2
20260505112036 57 0.0 2.6 0.00 0.00 0.00 94 1013.3
20260505111016 57 0 0.9 4.3 0.00 0.00 0.00 94 1013.4
20260505102016 57 0 0.9 3.5 0.00 0.00 0.00 95 1013.7
20260505101016 58 338 0.9 4.3 0.00 0.00 0.00 95 1013.7
20260505100036 58 0.0 3.5 0.00 0.00 0.00 95 1013.7
20260505095036 58 0.0 1.7 0.00 0.00 0.00 95 1013.8
20260505094016 58 0.0 2.6 0.00 0.00 0.00 95 1013.8
20260505093036 56 0 0.9 5.2 0.00 0.00 0.00 95 1013.8
20260505092016 56 338 0.9 4.3 0.00 0.00 0.00 94 1013.8
20260505091016 55 338 0.9 3.5 0.00 0.00 0.00 95 1013.8
20260505090036 55 0 0.9 3.5 0.00 0.00 0.00 95 1013.8
20260505085016 54 0 0.9 5.2 0.00 0.00 0.00 95 1013.9
20260505084036 54 338 0.9 3.5 0.00 0.00 0.00 95 1013.9
20260505083016 54 0 0.9 4.3 0.00 0.00 0.00 95 1013.9
20260505082016 53 338 0.9 3.5 0.00 0.00 0.00 95 1013.9
20260505081036 53 338 0.9 5.2 0.00 0.00 0.00 95 1014.0
20260505080035 53 338 0.9 4.3 0.00 0.00 0.00 95 1013.9
20260505075016 53 0.0 1.7 0.00 0.00 0.00 95 1013.9
20260505074015 52 0.0 2.6 0.00 0.00 0.00 95 1013.9
20260505073016 51 0.0 1.7 0.00 0.00 0.00 95 1014.0
20260505072056 51 0.0 0.9 0.00 0.00 0.00 95 1014.0
20260505071035 50 0.0 0.9 0.00 0.00 0.00 95 1014.0
20260505070115 50 0.0 0.9 0.00 0.00 0.00 95 1014.1
20260505065015 50 0.0 0.9 0.00 0.00 0.00 95 1014.1
20260505064015 50 0.0 0.9 0.00 0.00 0.00 95 1014.0
20260505063035 50 0.0 0.9 0.00 0.00 0.00 95 1014.1
20260505062016 49 0.0 0.9 0.00 0.00 0.00 95 1014.1
20260505061015 49 0.0 0.9 0.00 0.00 0.00 95 1014.2
20260505060017 49 0.0 0.0 0.00 0.00 0.00 95 1014.2
20260505055017 49 0.0 0.0 0.00 0.00 0.00 95 1014.2
20260505054037 49 0.0 0.0 0.00 0.00 0.00 95 1014.3
20260505053017 49 0.0 0.0 0.00 0.00 0.00 95 1014.4
20260505052017 49 0.0 0.0 0.00 0.00 0.00 95 1014.4
20260505051038 49 0.0 0.9 0.00 0.00 0.00 95 1014.3
20260505041017 48 0.0 0.0 0.00 0.00 0.00 94 1014.4
20260505040057 47 0.0 0.0 0.00 0.00 0.00 94 1014.3
20260505035017 47 0.0 0.0 0.00 0.00 0.00 94 1014.3
20260505034037 47 0.0 0.0 0.00 0.00 0.00 94 1014.2
20260505033017 46 0.0 0.9 0.00 0.00 0.00 94 1014.1
20260505032017 45 0.0 0.0 0.00 0.00 0.00 94 1014.0
20260505031017 45 0.0 0.0 0.00 0.00 0.00 94 1014.0
20260505030017 45 0.0 0.0 0.00 0.00 0.00 94 1014.3
20260505025017 45 0.0 0.0 0.00 0.00 0.00 95 1014.3
20260505024037 46 0.0 0.0 0.00 0.00 0.00 95 1014.3
20260505023017 46 0.0 0.0 0.00 0.00 0.00 95 1014.0
20260505022017 46 0.0 0.0 0.00 0.00 0.00 95 1014.2
20260505021017 46 0.0 0.0 0.00 0.00 0.00 95 1014.3
20260505020017 46 0.0 0.0 0.00 0.00 0.00 95 1014.4
20260505015037 47 0.0 0.0 0.00 0.00 0.00 95 1014.6
20260505014017 48 0.0 0.0 0.00 0.00 0.00 95 1014.7
20260505013017 48 0.0 0.0 0.00 0.00 0.00 95 1014.7
20260505012017 48 0.0 0.0 0.00 0.00 0.00 95 1014.8
20260505011017 47 0.0 0.0 0.00 0.00 0.00 95 1014.7
20260505010037 47 0.0 0.0 0.00 0.00 0.00 95 1014.6
20260505005037 47 0.0 0.0 0.00 0.00 0.00 95 1014.5
20260505004037 47 0.0 0.0 0.00 0.00 0.00 95 1014.7
20260505003036 48 0.0 0.0 0.00 0.00 0.00 95 1014.8
20260505002017 48 0.0 0.0 0.00 0.00 0.00 95 1014.9
20260505001016 49 0.0 0.0 0.00 0.00 0.00 95 1015.1
20260505000017 50 0.0 0.0 0.00 0.00 0.00 95 1015.2
20260504235017 50 0.0 0.0 0.00 0.00 0.00 96 1015.3
20260504234017 50 0.0 0.0 0.00 0.00 0.00 96 1015.3
20260504233017 51 0.0 0.0 0.00 0.00 0.00 96 1015.3
20260504232017 51 0.0 0.0 0.00 0.00 0.00 96 1015.2
20260504231017 52 0.0 0.9 0.00 0.01 0.00 96 1015.2
20260504230017 52 0.0 0.9 0.00 0.01 0.01 96 1015.3
20260504225017 52 0.0 0.0 0.00 0.01 0.01 96 1015.3
20260504224017 53 0.0 0.9 0.00 0.01 0.01 96 1015.3
20260504223017 53 0.0 0.9 0.00 0.01 0.01 96 1015.4
20260504222017 53 0.0 0.9 0.00 0.01 0.01 96 1015.5
20260504221017 53 0.0 0.0 0.00 0.01 0.01 96 1015.5
20260504220017 53 0.0 0.9 0.00 0.01 0.01 96 1015.6
20260504215017 53 0.0 0.9 0.00 0.01 0.01 96 1015.6
20260504214017 53 0.0 1.7 0.00 0.01 0.01 96 1015.6
20260504213017 53 0.0 1.7 0.00 0.01 0.01 95 1015.6
20260504212037 54 0.0 0.9 0.00 0.01 0.01 95 1015.7
20260504211017 54 0.0 0.0 0.00 0.01 0.01 95 1015.6
20260504210017 54 0.0 0.0 0.00 0.01 0.01 95 1015.7
20260504205017 54 0.0 1.7 0.00 0.01 0.01 95 1015.6
20260504204037 54 0.0 2.6 0.00 0.01 0.01 95 1015.7
20260504203017 54 0.0 3.5 0.00 0.01 0.01 96 1015.7
20260504202037 55 0.0 3.5 0.00 0.01 0.01 96 1015.6
20260504201037 55 0.0 1.7 0.00 0.01 0.01 96 1015.5